www.pogodaiklimat.ru

Погода и климат >> Архив погоды >> Канада >> Henderickson Auto


ПОГОДА в Henderickson Auto

  • Прогноз погоды в Henderickson Auto
  • Монитор погоды в Henderickson Auto
  • Климат города

АРХИВ ПОГОДЫ в Henderickson Auto

Время (UTC), дата Ветер
(напр.,м/с)
 
Видим.   Явления Облачность Т
(С)
Тd
(С)
f
(%)
Тe
(С)
Тes
(С)
Комфортность P
(гПа)
Po
(гПа)
Тmin
(С)
Tmax
(С)
R
(мм)
R24
(мм)
S
(см)
09 19.06 З 1 н/о н/о -0.3 -1.5 92 -1 -1 1019.6 855.7
12 19.06 З 1 н/о н/о -1.4 -2.1 95 -2 -2 1019.2 855.2 -2.0 +16.7
15 19.06 штиль 0 н/о н/о +8.4 +2.1 65 +8 +8 1016.9 854.6
18 19.06 Ю 2 н/о н/о +14.6 +2.3 43 +14 +14 1017.3 854.1 -2.0 +15.1
21 19.06 Ю 1 н/о н/о +14.9 +6.8 58 +16 +16 1017.1 853.5
00 20.06 З 1 н/о н/о +15.7 +7.4 58 +17 +17 1015.6 852.2 -2.0 +16.2
03 20.06 СЗ 1 н/о н/о +12.2 +9.5 84 +13 +13 1013.6 851.5
06 20.06 СЗ 1 н/о н/о +8.4 +7.8 96 +8 +8 1012.5 850.9 -2.0 +16.2
09 20.06 З 1 н/о н/о +7.8 +7.5 98 +8 +8 1011.1 849.7
12 20.06 СЗ 1 н/о н/о +6.8 +6.5 98 +7 +7 1010.9 849.5 +6.7 +16.2
15 20.06 ЮВ 1 н/о {осадки} н/о +11.1 +8.8 86 +11 +11 1009.6 848.5 0.5
18 20.06 В 1 н/о {осадки} н/о +15.2 +8.4 64 +17 +17 1007.6 846.9 +6.2 +15.2 0.8
21 20.06 З 4 н/о н/о +8.4 +6.0 85 +5 +5 1010.9 848.5 1
00 21.06 СЗ 3 н/о {осадки} н/о +10.1 +3.3 63 +8 +8 1011.1 848.8 +6.2 +15.9 4
03 21.06 З 4 н/о н/о +8.5 -1.6 49 +6 +6 1011.3 849.4
06 21.06 З 4 н/о н/о +6.4 -2.6 53 +3 +3 1011.5 849.9 +6.2 +15.9 22
09 21.06 СЗ 2 н/о н/о +3.4 -4.1 58 +1 +1 1014.2 850.6
12 21.06 З 4 н/о н/о +5.0 -5.1 48 +1 +1 1013.3 850.4 +2.1 +15.9
15 21.06 З 6 н/о н/о +7.0 -4.0 45 +3 +3 1013.0 850.2
18 21.06 З 6 н/о н/о +9.4 -4.5 37 +7 +7 1013.6 850.7 +2.1 +9.5
21 21.06 З 6 н/о н/о +9.7 -4.6 36 +7 +7 1014.8 851.3
00 22.06 З 6 н/о н/о +9.5 -3.0 41 +7 +7 1015.5 852.1 +2.1 +12.1
03 22.06 З 4 н/о н/о +6.9 -2.1 53 +4 +4 1016.9 853.2
06 22.06 СЗ 3 н/о н/о +3.6 +1.7 87 0 0 1018.8 854.6 +2.1 +12.1 16
09 22.06 З 4 н/о н/о +3.3 +1.9 91 -1 -1 1020.3 855.9 2
12 22.06 СЗ 2 н/о {осадки} н/о +2.9 +2.1 94 -0 -0 1022.6 857.7 +2.9 +12.1 2
15 22.06 З 2 н/о {осадки} н/о +4.8 +3.2 89 +2 +2 1024.9 859.6 0.7
18 22.06 СЗ 4 н/о {осадки} н/о +7.6 +5.1 84 +4 +4 1025.6 860.1 +2.9 +7.8 2
21 22.06 СЗ 3 н/о {осадки} н/о +10.2 +2.8 60 +8 +8 1025.7 860.5 0.2
00 23.06 З 2 н/о {осадки} н/о +10.5 +5.4 71 +10 +10 1025.9 860.7 +2.9 +12.9 0.4
03 23.06 З 1 н/о н/о +8.6 +5.7 82 +8 +8 1026.2 860.9 0.2
06 23.06 З 1 н/о н/о +4.9 +3.5 91 +3 +3 1026.7 861.2 +2.9 +12.9 0.2
09 23.06 СЗ 1 н/о н/о -0.0 -0.5 96 -1 -1 1027.4 861.4
12 23.06 З 1 н/о н/о -0.8 -1.3 96 -3 -3 1027.7 861.6 -0.8 +12.9
15 23.06 З 2 н/о н/о +10.8 +1.0 51 +10 +10 1026.2 861.9
18 23.06 З 2 н/о н/о +12.6 +1.8 48 +12 +12 1026.2 861.6 -1.0 +14.2
21 23.06 СЗ 4 н/о н/о +14.6 +1.7 42 +14 +14 1026.3 861.2
00 24.06 СЗ 1 н/о н/о +14.1 +1.0 41 +15 +15 1026.8 861.4 -1.0 +16.2
03 24.06 С 1 н/о н/о +10.8 +5.1 68 +11 +11 1025.6 861.7
06 24.06 З 1 н/о н/о +5.4 +4.2 92 +5 +5 1027.1 862.4 -1.0 +16.2 23
09 24.06 СЗ 1 н/о н/о +1.5 +0.9 96 +1 +1 1027.6 862.5
12 24.06 штиль 0 н/о н/о -0.8 -1.3 96 -2 -2 1028.8 863.1 -0.9 +16.2
15 24.06 В 1 н/о н/о +13.0 +2.4 49 +14 +14 1026.8 863.1 0.2
18 24.06 З 2 н/о {осадки} н/о +16.4 -0.7 31 +17 +17 1027.2 863.1 -0.9 +16.7 0.2
21 24.06 ЮВ 2 н/о н/о +19.0 +0.2 28 +20 +20 1026.6 862.4
00 25.06 В 2 н/о н/о +19.0 -0.2 27 +20 +20 1025.9 861.4 -0.9 +20.1
03 25.06 В 2 н/о н/о +18.2 +1.7 33 +19 +19 1022.5 860.6
06 25.06 ЮВ 2 н/о н/о +11.8 +2.6 53 +11 +11 1022.7 860.3 -0.9 +20.1
09 25.06 З 1 н/о н/о +5.8 +3.8 87 +6 +6 1022.0 859.2
12 25.06 СЗ 1 н/о н/о +1.7 +1.2 96 -0 -0 1022.3 858.8 +1.3 +20.1
15 25.06 ЮВ 1 н/о н/о +16.1 +5.2 48 +17 +17 1019.1 858.2
18 25.06 В 3 н/о н/о +22.1 +2.5 27 +22 +22 комфорт 1017.1 856.5 +1.3 +22.1
21 25.06 Ю 1 н/о н/о +25.0 +2.5 23 +24 +24 комфорт 1015.3 854.5
00 26.06 Ю 3 н/о н/о +26.7 +0.2 18 +25 +25 комфорт 1013.2 852.4 +1.3 +27.7
03 26.06 Ю 2 н/о н/о +24.5 +1.6 22 +23 +23 комфорт 1009.3 850.9
06 26.06 СЗ 1 н/о н/о +9.0 +5.5 79 +9 +9 1009.4 849.6 +1.3 +27.7

 

Местоположение метеостанции Henderickson Auto (Канада): широта 53.78 долгота -118.40 высота над уровнем моря 1432 м.

В архиве по умолчанию представлена погода в Henderickson Auto за последнюю неделю. Архивные данные за месяц целиком и за предыдущие месяцы, начиная с января 2011 года, Вы можете получить, выбрав интересующий диапазон дат из раскрывающегося списка и нажав кнопку "Ввод!".

Внимание! Время в таблицах - всемирное. Для получения местного времени необходимо прибавить поправку, которая в Henderickson Auto равна -7 ч.

Смотрите также архив погоды в соседних городах и на ближайших метеорологических станциях:

Погода в Willow Creek 1 (Канада) (45 км)
Погода в Jasper Warden (Канада) (98 км)
Погода в Jasper (Канада) (104 км)
Погода в Edson AB (Канада) (134 км)
Погода в Grande Prairie (Канада) (158 км)
Погода в Valley View Agdm (Канада) (166 км)
Погода в Beaverlodge Cda (Канада) (171 км)
Погода в Teepee Creek Agcm (Канада) (175 км)
Погода в Whitecourt (Канада) (181 км)
Погода в Whitecourt Alta (Канада) (181 км)

Пояснения к столбцам:

Ветер - указаны скорость ветра в м/с - средняя за 10 мин, порывы в срок и между сроками (в фигурных скобках) и направление, откуда дует ветер: С - северный, СВ - северо-восточный, В - восточный, ЮВ - юго-восточный, Ю - южный, ЮЗ - юго-западный, З - западный, СЗ - северо-западный.
Видимость - горизонтальная дальность видимости в метрах или километрах. При видимости от 1 до 10 км при отсутствии осадков обычно наблюдается дымка, при ухудшении видимости до 1 км и менее - туман. В сухую погоду видимость может ухудшаться дымом, пылью или мглою.
Явления - указаны атмосферные явления, наблюдавшиеся в срок или в последний час перед сроком; фигурными скобками обозначены явления, наблюдавшиеся между сроками (за 1-3 часа до срока); квадратными скобками обозначены град или гололедные отложения с указанием их диаметра в мм.
Облачность - указаны через наклонную черту общая и нижняя облачность в баллах и высота нижней границы облаков в метрах; квадратными скобками обозначены формы облаков: Ci - перистые, Cs - перисто-слоистые, Cc - перисто-кучевые, Ac - высококучевые, As - высокослоистые, Sc - слоисто-кучевые, Ns - слоисто-дождевые, Cu - кучевые, Cb - кучево-дождевые. Подробнее классификацию облаков см. в Атласе облаков (PDF).
T - Температура воздуха - температура, измеренная на высоте 2 м над землей.
Td - Температура точки росы - температура, при понижении до которой содержащийся в воздухе водяной пар достигнет насыщения.
f - Относительная влажность воздуха - влажноcть воздуха, измеренная на высоте 2 м над землей.
Te - Эффективная температура - температура, которую ощущает одетый по сезону человек в тени. Характеристика душности погоды. При расчете учитывается влияние влажности воздуха и скорости ветра на теплоощущения человека.
Tes - Эффективная температура на солнце - температура, которую ощущает человек, с поправкой на солнечный нагрев. Характеристика знойности погоды. Зависит от высоты солнца над горизонтом, облачности и скорости ветра. Ночью, в пасмурную погоду, а также при ветре 12 м/с и более поправка равна нулю.
P - Атмосферное давление - приведенное к уровню моря атмосферное давление.
Po - Атмосферное давление - измеренное на уровне метеостанции атмосферное давление.
Tmin - Минимальная температура - минимум температуры воздуха на высоте 2 м над землей.
Tmax - Максимальная температура - максимум температуры воздуха на высоте 2 м над землей.
R - Количество осадков - Количество выпавших осадков за период времени, мм. При наведении курсора мыши на число - период времени, за который выпало указанное количество осадков.
R24 - Количество осадков - Количество выпавших осадков за 24 часа, мм.
S - Снежный покров - Высота снежного покрова, см. При наведении курсора мыши на число - состояние снежного покрова и степень покрытия местности в баллах.